{"data":{"norad_id":57994,"epoch":"2026-05-24T23:35:20.209056Z","epoch_age_seconds":83423,"freshness":"FRESH","line1":"1 57994U 23153D   26144.98287279 -.00001770  00000+0 -54815-4 0  9990","line2":"2 57994  43.0053 356.2618 0001881 296.9645  63.1015 15.27567288146469","mean_motion":15.27567288,"eccentricity":0.0001881,"inclination_deg":43.0053,"raan_deg":356.2618,"arg_perigee_deg":296.9645,"mean_anomaly_deg":63.1015,"bstar":-5.4815e-5,"rev_number":14646,"period_min":94.267533175926,"perigee_km":481.79656434013,"apogee_km":484.37775686935,"semimajor_km":6861.2241606047,"source":"CELESTRAK","updated_at":"2026-05-25T13:38:18.489994Z"}}